Location: Unspecified
(0.0000°N, 0.0000°E)
Time: 03:56:30
(UTC+01:00)

ISS - All Passes

Search period start: 01 March 2015 00:00
Search period end: 11 March 2015 00:00
Orbit: 397 x 408 km, 51.6° (Epoch: 28 February)

Date Brightness Start Highest point End Pass type
(mag) Time Alt. Az. Time Alt. Az. Time Alt. Az.
01 Mar - 07:22:09 10° S 07:24:54 26° SE 07:27:41 10° ENE daylight
01 Mar - 18:56:16 10° NNE 18:58:20 16° NE 19:00:31 10° E daylight
01 Mar - 20:32:41 10° W 20:34:40 15° SW 20:36:33 10° SSW visible
02 Mar - 08:05:34 10° WSW 08:08:15 23° NW 08:10:51 10° N daylight
02 Mar - 19:38:36 10° NW 19:41:40 39° SW 19:44:45 10° SSE visible
03 Mar - 07:12:03 10° SW 07:15:18 71° NW 07:18:30 10° NNE daylight
03 Mar - 18:45:31 10° NNW 18:48:43 62° NE 18:51:57 10° SE daylight
04 Mar - 06:19:20 10° SSW 06:22:19 34° SE 06:25:19 10° ENE visible
04 Mar - 17:53:14 10° N 17:55:43 21° NE 17:58:17 10° ESE daylight
04 Mar - 19:30:51 10° WSW 19:32:04 11° SW 19:33:06 10° SSW visible
05 Mar - 05:27:43 10° SSE 05:29:15 13° SE 05:30:55 10° E visible
05 Mar - 07:03:14 10° W 07:05:35 18° NW 07:07:50 10° N daylight
05 Mar - 18:36:04 10° WNW 18:38:58 29° SW 18:41:52 10° S daylight
06 Mar - 06:09:22 10° SW 06:12:33 51° NW 06:15:41 10° NNE visible
06 Mar - 17:42:42 10° NW 17:45:56 85° NE 17:49:12 10° SE daylight
07 Mar - 05:16:22 10° SSW 05:19:30 46° SE 05:22:38 10° NE visible
07 Mar - 16:50:06 10° N 16:52:53 27° NE 16:55:42 10° ESE daylight
08 Mar - 04:24:16 10° SSE 04:26:23 17° SE 04:28:37 10° E night (unlit)
08 Mar - 06:00:51 10° W 06:02:43 14° NW 06:04:27 10° NNW visible
08 Mar - 15:59:25 10° NE 15:59:43 10° NE 16:00:13 10° ENE daylight
08 Mar - 17:33:24 10° WNW 17:36:03 23° SW 17:38:40 10° S daylight
09 Mar - 05:06:31 10° SW 05:09:34 38° NW 05:12:35 10° NNE night (unlit)
09 Mar - 16:39:43 10° NW 16:42:56 70° SW 16:46:10 10° SSE daylight
10 Mar - 04:13:14 10° SSW 04:16:28 63° SE 04:19:40 10° NE night (unlit)
10 Mar - 15:46:51 10° NNW 15:49:48 35° NE 15:52:50 10° ESE daylight
